Orbital Elements at Epoch 2453839.5 (2006-Apr-14.0) TDB
Reference: JPL 2 (heliocentric ecliptic J2000)
Element | Value | Uncertainty (1-sigma) | Units |
e | 0.69335823324 | 0.094606 | |
a | 3.06777308736794 | 0.95286 | au |
q | 0.940707359529286 | 0.0022547 | au |
i | 11.3683658421522 | 0.64318 | deg |
node | 70.21921728190907 | 3.0294 | deg |
peri | 198.3713234061079 | 3.2068 | deg |
M | 349.7867838211022 | 4.868 | deg |
tp | 2453895.179240222853 (2006-Jun-08.67924022) | 0.59808 | TDB |
period | 1962.606697941274 5.37 | 914.39 2.503 | d yr |
n | .1834295176805577 | 0.085461 | deg/d |
Q | 5.194838815206602 | 1.6135 | au |
|
| | Orbit Determination Parameters
Additional Information
|